STARLINK-2435, 47843

Orbit data source: Space-Track

STARLINK-2435, 47843 is a payload satellite owned by SpaceX/Seattle (US) in LEO that was launched on Thu, 11 Mar 2021 UTC via an FALCON 9 launch vehicle from the Air Force Eastern Test Range (AFETR). Payload-class satellites include a variety of spacecraft equipped with specific instruments for various scientific and technological missions. These include communications satellites like Starlink; space stations such as the ISS; scientific satellites like the Hubble; Earth observation satellites from companies like Planet Labs, Umbra, and HawkEye 360; GPS; miniature CubeSats for education and research; and military/defense satellites.

Loading next visibility...
Identifier
47843, 2021-018BJ
Orbit
LEO
Country
Flag of USUS
Related business
Manufacturer
SpaceX/Seattle
Mission
Operational Commercial Communications
Bus & Motor
STARLINK, Unknown motor
Mass
260 kg wet, ~248 kg dry
Launch date (UTC)
2021-03-11 (5 years ago)
Launch vehicle
FALCON 9
Launch site
Air Force Eastern Test Range (AFETR)
Object type
Payload
Rocket body
Debris
Shape & HBR
Box + 1 Pan, 10.1 m
Radar Cross Section
13.562 m², Large (>1 m²)

Expand to show TLE details & history
Last TLE update: 10 hours ago

TLE from 10 hours ago
0 STARLINK-2435
1 47843U 21018BJ  26035.39235389 -.00000273  00000-0  59145-6 0  9999
2 47843  53.0569  46.0982 0001516  98.1734 261.9427 15.06396572271522
Epoch: 2026-02-04T09:24Z
TLE epoch observation values (Epoch: 2026-02-04T09:24:59.376Z)
Latitude
-0°
Longitude
130.29121°
Altitude
548.249 km
Speed
7.589 km/s
True Right ascension
03h 04m 23s
True Declination
0° 00' 00"
Sunlit
Object was in daylight at epoch
Visualization orbit readout
Latitude
Unknown
Longitude
Unknown
Altitude
Unknown
Speed
Unknown
Apparent Right ascension
Unknown
Apparent Declination
Unknown
Sunlit
N/A
Visualization observer readout
Local Sidereal Time
21:26:22
Azimuth
Unknown
Elevation
Unknown
Doppler factor
Unknown
Orbital elements
Apogee altitude
548.542 km
Perigee altitude
546.442 km
Semi-major axis
6,925.629 km
Eccentricity
0.00015
Inclination
53.0569°
RAAN
46.0982°
Arg. of periapsis
98.1734°
True anomaly
261.9255°
Mean anomaly
261.9427°
Eccentric anomaly
261.9341°
Mean motion
3.76577 °/min
Orbital period
95.6 mins
BSTAR
5.9145e-7
Loading maneuver chart data...
Computing Atmospheric mass density...
Loading historical data...
Loading historical data...
Loading historical data...
Loading historical data...
Loading historical data...
Loading historical data...
Loading historical data...

Documentation

Showing up to 5 results
|